STARLINK-2036, 47652

Orbit data source: Space-Track

STARLINK-2036, 47652 is a payload satellite owned by SpaceX/Seattle (US) in LEO that was launched on Tue, 16 Feb 2021 UTC via an FALCON 9 launch vehicle from the Air Force Eastern Test Range (AFETR). Payload-class satellites include a variety of spacecraft equipped with specific instruments for various scientific and technological missions. These include communications satellites like Starlink; space stations such as the ISS; scientific satellites like the Hubble; Earth observation satellites from companies like Planet Labs, Umbra, and HawkEye 360; GPS; miniature CubeSats for education and research; and military/defense satellites.

Loading next visibility...
Identifier
47652, 2021-012AJ
Orbit
LEO
Country
Flag of USUS
Related business
Manufacturer
SpaceX/Seattle
Mission
Partially operational Commercial Communications
Bus & Motor
STARLINK, Unknown motor
Mass
260 kg wet, ~248 kg dry
Launch date (UTC)
2021-02-16 (5 years ago)
Launch vehicle
FALCON 9
Launch site
Air Force Eastern Test Range (AFETR)
Object type
Payload
Rocket body
Debris
Shape & HBR
Box + 1 Pan, 10.1 m
Radar Cross Section
13.562 m², Large (>1 m²)

Expand to show TLE details & history
Last TLE update: 2 days ago

TLE from 2 days ago
0 STARLINK-2036
1 47652U 21012AJ  26171.41668980  .00226454  00000-0  21590-2 0  9991
2 47652  53.1593 291.7421 0000927  47.9388 149.5446 15.65551887  5868
Epoch: 2026-06-20T10:00Z
TLE epoch observation values (Epoch: 2026-06-20T10:00:01.998Z)
Latitude
-14.07638°
Longitude
63.86863°
Altitude
375.978 km
Speed
7.684 km/s
True Right ascension
08h 10m 02s
True Declination
-13° 59' 27"
Sunlit
Object was in daylight at epoch
Visualization orbit readout
Latitude
Unknown
Longitude
Unknown
Altitude
Unknown
Speed
Unknown
Apparent Right ascension
Unknown
Apparent Declination
Unknown
Sunlit
N/A
Visualization observer readout
Local Sidereal Time
23:18:45
Azimuth
Unknown
Elevation
Unknown
Doppler factor
Unknown
Orbital elements
Apogee altitude
372.538 km
Perigee altitude
371.287 km
Semi-major axis
6,750.049 km
Eccentricity
0.00009
Inclination
53.1593°
RAAN
291.7421°
Arg. of periapsis
47.9388°
True anomaly
149.54998°
Mean anomaly
149.5446°
Eccentric anomaly
149.54729°
Mean motion
3.91366 °/min
Orbital period
91.99 mins
BSTAR
0.002159
Loading maneuver chart data...
Computing Atmospheric mass density...

Documentation

Showing up to 5 results
|